Home   Weather   Kitakyushu   Past weeks

Flag for Japan Past Weather in Kitakyushu, Japan — Yesterday and Last 2 Weeks

Now
46 °F

Scattered clouds.


Feels Like: 38 °F
Forecast: 38 / 46 °F
Wind: 24 mph from West

Location: Kitakyushu Airport

Current Time: Jan 20, 2017 at 10:55:45 am

Latest Report: Jan 20, 2017 at 10:00 am


Visibility: N/A

Pressure: 29.92 "Hg

Humidity: 53%

Dew Point: 30 °F

Location of KitakyushuLocation

Past Weather in Kitakyushu — Graph

°F

Kitakyushu Temperature Yesterday

Maximum temperature yesterday: 50 °F (at 2:00 pm)
Minimum temperature yesterday: 45 °F (at 3:00 am)
Average temperature yesterday: 47 °F

High & Low Weather Summary for the Past Weeks

 TemperatureHumidityPressure
High54 °F (Jan 8, 4:00 pm)94% (Jan 8, 12:41 am)30.42 "Hg (Jan 8, 12:41 am)
Low32 °F (Jan 15, 2:36 am)34% (Jan 13, 10:00 pm)29.71 "Hg (Jan 8, 3:00 pm)
Average45 °F65%30.09 "Hg
* Reported Jan 5 9:00 am — Jan 20 9:00 am, Kitakyushu, Weather by CustomWeather, © 2017

Note: Actual official high and low records may vary slightly from our data, if they occured in-between our weather recording intervals... More about our weather records

Advertising

Kitakyushu Weather History for the Previous 24 Hours

Scroll right to see more
 ConditionsComfort  
Time TempWeatherWind HumidityBarometerVisibility
9:00 am
Fri, Jan 20
43 °FSprinkles. Fog.18 mph81%29.92 "Hg3 mi
8:15 am41 °FRain showers. Fog.15 mph87%29.92 "Hg3 mi
7:23 am45 °FSprinkles. Broken clouds.22 mph76%29.92 "Hg4 mi
7:00 am46 °FSprinkles. Partly cloudy.10 mph66%29.92 "HgN/A
6:00 am46 °FPartly cloudy.15 mph57%29.92 "HgN/A
5:00 am46 °FPassing clouds.21 mph62%29.92 "HgN/A
4:00 am46 °FPassing clouds.15 mph82%29.95 "HgN/A
3:00 am45 °FScattered showers. Partly cloudy.7 mph87%29.95 "HgN/A
2:00 am45 °FSprinkles. Partly cloudy.5 mph81%29.95 "HgN/A
1:00 am45 °FScattered showers. Passing clouds.1 mph81%29.98 "HgN/A
12:00 am45 °FScattered showers. Passing clouds.1 mph81%30.01 "HgN/A
11:00 pm
Thu, Jan 19
45 °FPassing clouds.2 mph76%30.04 "HgN/A
10:00 pm45 °FPartly cloudy.2 mph81%30.04 "HgN/A
9:00 pm45 °FPassing clouds.2 mph76%30.07 "HgN/A
8:00 pm46 °FPassing clouds.2 mph76%30.07 "HgN/A
7:00 pm46 °FClear.5 mph82%30.07 "Hg10 mi
6:00 pm48 °FClear.5 mph66%30.07 "Hg10 mi
5:00 pm48 °FSunny.3 mph66%30.07 "Hg10 mi
4:00 pm50 °FPartly sunny.6 mph62%30.09 "HgN/A
3:00 pm50 °FPartly sunny.5 mph67%30.07 "HgN/A
2:00 pm50 °FPartly sunny.5 mph67%30.09 "HgN/A
1:00 pm48 °FPartly sunny.3 mph76%30.12 "Hg5 mi
12:00 pm48 °FBroken clouds.2 mph71%30.15 "Hg6 mi
11:00 am48 °FBroken clouds.3 mph71%30.18 "Hg6 mi
10:00 am48 °FPartly sunny.5 mph76%30.21 "Hg6 mi
Weather by CustomWeather, © 2017

See weather overviewHow to use our weather pages